Location: Unnamed
(51.5169°N, 0.1311°W)
Time: 18:15:27
(UTC+00:00)

ARIANE 6 FM1 Upper Stage - Visible Passes

Search period start: 13 March 2026 00:00
Search period end: 23 March 2026 00:00
Orbit: 523 x 607 km, 62.0° (Epoch: 12 March)

Date Brightness Start Highest point End Pass type
(mag) Time Alt. Az. Time Alt. Az. Time Alt. Az.
13 Mar 3.5 04:22:09 24° S 04:24:11 45° SE 04:28:02 10° ENE visible
14 Mar 2.9 04:22:14 32° SSW 04:23:54 62° SE 04:27:54 10° NE visible
15 Mar 5.3 02:46:13 13° ESE 02:46:13 13° ESE 02:47:25 10° E visible
15 Mar 2.5 04:22:13 39° SW 04:23:40 83° SE 04:27:42 10° NE visible
16 Mar 5.1 02:46:08 17° E 02:46:08 17° E 02:47:47 10° ENE visible
16 Mar 2.5 04:22:08 41° WSW 04:23:26 74° NW 04:27:27 10° NE visible
17 Mar 4.9 02:45:59 21° E 02:45:59 21° E 02:47:52 10° ENE visible
17 Mar 2.8 04:21:58 38° W 04:23:14 57° NW 04:27:12 10° NE visible
18 Mar 4.6 02:45:46 25° E 02:45:46 25° E 02:47:49 10° ENE visible
18 Mar 3.1 04:21:46 33° W 04:23:03 44° NNW 04:26:55 10° NE visible
19 Mar 4.4 02:45:30 29° ENE 02:45:30 29° ENE 02:47:40 10° NE visible
19 Mar 3.5 04:21:29 27° WNW 04:22:53 36° NNW 04:26:38 10° NE visible
20 Mar 4.3 02:45:12 32° ENE 02:45:12 32° ENE 02:47:28 10° NE visible
20 Mar 3.8 04:21:11 23° WNW 04:22:45 30° NNW 04:26:20 10° NE visible
21 Mar 4.1 02:44:51 34° NE 02:44:51 34° NE 02:47:13 10° NE visible
21 Mar 4.1 04:20:49 19° WNW 04:22:37 26° NNW 04:26:02 10° NE visible
22 Mar 4.1 02:44:28 35° NE 02:44:28 35° NE 02:46:56 10° NE visible
22 Mar 4.3 04:20:26 16° WNW 04:22:31 23° NNW 04:25:45 10° NE visible
